| time (UTC) | temp F | wind direction | speed knots | gust knots | rain 1hr in | rain 24hr in | rain mn in | humidity % | barometer mb |
| 20260507101251 | 60 | 315 | 7.0 | 7.8 | 0.00 | 0.00 | 0.00 | 68 | 1013.9 |
| 20260507100750 | 58 | 308 | 5.2 | 7.8 | 0.00 | 0.00 | 0.00 | 68 | 1013.7 |
| 20260507100221 | 58 | 310 | 0.9 | 7.0 | 0.00 | 0.00 | 0.00 | 67 | 1013.9 |
| 20260507095911 | 58 | 296 | 4.3 | 8.7 | 0.00 | 0.00 | 0.00 | 68 | 1014.0 |
| 20260507095121 | 58 | 258 | 1.7 | 6.1 | 0.00 | 0.00 | 0.00 | 70 | 1013.9 |
| 20260507094621 | 58 | 230 | 1.7 | 5.2 | 0.00 | 0.00 | 0.00 | 70 | 1013.8 |
| 20260507094536 | 58 | 279 | 1.7 | 5.2 | 0.00 | 0.00 | 0.00 | 71 | 1013.9 |
| 20260507093551 | 58 | 265 | 5.2 | 7.8 | 0.00 | 0.00 | 0.00 | 69 | 1013.9 |
| 20260507093051 | 58 | 220 | 4.3 | 6.1 | 0.00 | 0.00 | 0.00 | 67 | 1013.8 |
| 20260507092551 | 59 | 253 | 0.0 | 3.5 | 0.00 | 0.00 | 0.00 | 67 | 1013.7 |
| 20260507092021 | 60 | 213 | 3.5 | 7.0 | 0.00 | 0.00 | 0.00 | 68 | 1013.7 |
| 20260507091711 | 59 | 219 | 6.1 | 9.6 | 0.00 | 0.00 | 0.00 | 68 | 1013.7 |
| 20260507090950 | 58 | 256 | 2.6 | 5.2 | 0.00 | 0.00 | 0.00 | 71 | 1013.8 |
| 20260507090451 | 58 | 265 | 1.7 | 6.1 | 0.00 | 0.00 | 0.00 | 71 | 1013.7 |
| 20260507085920 | 57 | 301 | 3.5 | 7.0 | 0.00 | 0.00 | 0.00 | 70 | 1013.6 |
| 20260507085420 | 57 | 246 | 2.6 | 5.2 | 0.00 | 0.00 | 0.00 | 71 | 1013.6 |
| 20260507085110 | 56 | 279 | 0.9 | 5.2 | 0.00 | 0.00 | 0.00 | 72 | 1013.5 |
| 20260507084321 | 56 | 321 | 1.7 | 5.2 | 0.00 | 0.00 | 0.00 | 71 | 1013.6 |
| 20260507084041 | 56 | 268 | 3.5 | 7.8 | 0.00 | 0.00 | 0.00 | 72 | 1013.8 |
| 20260507083250 | 56 | 235 | 5.2 | 7.8 | 0.00 | 0.00 | 0.00 | 71 | 1013.7 |
| 20260507082720 | 56 | 251 | 6.1 | 7.8 | 0.00 | 0.00 | 0.00 | 71 | 1013.8 |
| 20260507082150 | 56 | 267 | 5.2 | 12.2 | 0.00 | 0.00 | 0.00 | 72 | 1013.7 |
| 20260507081650 | 56 | 272 | 4.3 | 7.8 | 0.00 | 0.00 | 0.00 | 73 | 1013.7 |
| 20260507081341 | 56 | 269 | 3.5 | 11.3 | 0.00 | 0.00 | 0.00 | 71 | 1013.6 |
| 20260507080620 | 56 | 235 | 4.3 | 7.8 | 0.00 | 0.00 | 0.00 | 72 | 1013.4 |
| 20260507080051 | 56 | 294 | 5.2 | 7.0 | 0.00 | 0.00 | 0.00 | 72 | 1013.6 |
| 20260507075521 | 56 | 237 | 3.5 | 6.1 | 0.00 | 0.00 | 0.00 | 73 | 1013.5 |
| 20260507075021 | 55 | 228 | 6.1 | 8.7 | 0.00 | 0.00 | 0.00 | 73 | 1013.3 |
| 20260507074451 | 55 | 218 | 1.7 | 7.8 | 0.00 | 0.00 | 0.00 | 75 | 1013.5 |
| 20260507074142 | 55 | 258 | 5.2 | 8.7 | 0.00 | 0.00 | 0.00 | 75 | 1013.4 |
| 20260507073351 | 55 | 266 | 1.7 | 7.8 | 0.00 | 0.00 | 0.00 | 75 | 1013.4 |
| 20260507072851 | 55 | 242 | 3.5 | 7.8 | 0.00 | 0.00 | 0.00 | 75 | 1013.6 |
| 20260507072321 | 55 | 239 | 3.5 | 7.8 | 0.00 | 0.00 | 0.00 | 75 | 1013.2 |
| 20260507071821 | 55 | 267 | 7.0 | 13.9 | 0.00 | 0.00 | 0.00 | 76 | 1013.1 |
| 20260507071511 | 55 | 220 | 4.3 | 8.7 | 0.00 | 0.00 | 0.00 | 74 | 1013.2 |
| 20260507070751 | 55 | 259 | 6.1 | 8.7 | 0.00 | 0.00 | 0.00 | 75 | 1013.3 |
| 20260507070250 | 55 | 222 | 7.0 | 8.7 | 0.00 | 0.00 | 0.00 | 75 | 1012.9 |
| 20260507065751 | 55 | 241 | 2.6 | 7.0 | 0.00 | 0.00 | 0.00 | 74 | 1012.8 |
| 20260507065250 | 55 | 252 | 3.5 | 9.6 | 0.00 | 0.00 | 0.00 | 74 | 1012.9 |
| 20260507064721 | 56 | 253 | 6.1 | 12.2 | 0.00 | 0.00 | 0.00 | 73 | 1013.1 |
| 20260507064221 | 56 | 167 | 5.2 | 7.8 | 0.00 | 0.00 | 0.00 | 73 | 1013.1 |
| 20260507063651 | 55 | 293 | 1.7 | 6.1 | 0.00 | 0.00 | 0.00 | 74 | 1013.2 |
| 20260507063121 | 55 | 233 | 2.6 | 7.0 | 0.00 | 0.00 | 0.00 | 74 | 1013.1 |
| 20260507062811 | 55 | 258 | 0.9 | 5.2 | 0.00 | 0.00 | 0.00 | 76 | 1012.9 |
| 20260507062020 | 54 | 240 | 3.5 | 11.3 | 0.00 | 0.00 | 0.00 | 76 | 1012.8 |
| 20260507061450 | 54 | 247 | 3.5 | 6.1 | 0.00 | 0.00 | 0.00 | 77 | 1012.8 |
| 20260507060921 | 54 | 232 | 1.7 | 3.5 | 0.00 | 0.00 | 0.00 | 77 | 1012.5 |
| 20260507060421 | 54 | 265 | 5.2 | 7.0 | 0.00 | 0.00 | 0.00 | 79 | 1012.5 |
| 20260507060141 | 54 | 264 | 1.7 | 5.2 | 0.00 | 0.00 | 0.00 | 78 | 1012.4 |
| 20260507055351 | 54 | 239 | 1.7 | 5.2 | 0.00 | 0.00 | 0.00 | 79 | 1012.6 |
| 20260507054850 | 54 | 206 | 0.9 | 2.6 | 0.00 | 0.00 | 0.00 | 79 | 1012.5 |
| 20260507054321 | 53 | 251 | 0.0 | 3.5 | 0.00 | 0.00 | 0.00 | 78 | 1012.2 |
| 20260507053750 | 53 | 220 | 4.3 | 7.0 | 0.00 | 0.00 | 0.00 | 79 | 1012.6 |
| 20260507053441 | 53 | 217 | 1.7 | 2.6 | 0.00 | 0.00 | 0.00 | 81 | 1012.4 |
| 20260507052650 | 53 | 221 | 1.7 | 3.5 | 0.00 | 0.00 | 0.00 | 81 | 1012.3 |
| 20260507052150 | 53 | 199 | 1.7 | 2.6 | 0.00 | 0.00 | 0.00 | 86 | 1012.3 |
| 20260507051651 | 52 | 141 | 0.0 | 0.9 | 0.00 | 0.00 | 0.00 | 86 | 1012.4 |
| 20260507051121 | 52 | 244 | 1.7 | 2.6 | 0.00 | 0.00 | 0.00 | 84 | 1012.3 |
| 20260507050841 | 52 | 151 | 0.0 | 0.9 | 0.00 | 0.00 | 0.00 | 85 | 1012.2 |
| 20260507050051 | 53 | 176 | 0.9 | 1.7 | 0.00 | 0.00 | 0.00 | 85 | 1012.3 |
| 20260507045521 | 52 | 125 | 0.9 | 1.7 | 0.00 | 0.00 | 0.00 | 86 | 1012.4 |
| 20260507045021 | 52 | 112 | 0.9 | 1.7 | 0.00 | 0.00 | 0.00 | 86 | 1012.1 |
| 20260507044451 | 52 | 116 | 1.7 | 1.7 | 0.00 | 0.00 | 0.00 | 88 | 1012.2 |
| 20260507043921 | 51 | 127 | 1.7 | 2.6 | 0.00 | 0.00 | 0.00 | 90 | 1012.0 |
| 20260507043642 | 51 | 127 | 1.7 | 2.6 | 0.00 | 0.00 | 0.00 | 91 | 1011.9 |
| 20260507042851 | 50 | 105 | 0.9 | 0.9 | 0.00 | 0.00 | 0.00 | 91 | 1011.9 |
| 20260507042321 | 49 | 104 | 0.0 | 0.9 | 0.00 | 0.00 | 0.00 | 92 | 1011.7 |
| 20260507041751 | 49 | 110 | 0.9 | 0.9 | 0.00 | 0.00 | 0.00 | 92 | 1011.6 |
| 20260507041251 | 49 | 225 | 0.0 | 0.0 | 0.00 | 0.00 | 0.00 | 92 | 1011.5 |
| 20260507041011 | 49 | 211 | 0.0 | 0.0 | 0.00 | 0.00 | 0.00 | 91 | 1011.2 |
| 20260507040250 | 49 | 210 | 0.0 | 0.0 | 0.00 | 0.00 | 0.00 | 91 | 1011.2 |
| 20260507035750 | 49 | 261 | 0.0 | 0.0 | 0.00 | 0.00 | 0.00 | 91 | 1011.3 |
| 20260507035220 | 49 | 204 | 0.0 | 0.0 | 0.00 | 0.00 | 0.00 | 92 | 1011.2 |
| 20260507034651 | 49 | 205 | 0.0 | 1.7 | 0.00 | 0.00 | 0.00 | 92 | 1011.2 |
| 20260507034342 | 49 | 175 | 0.9 | 0.9 | 0.00 | 0.00 | 0.00 | 93 | 1011.3 |
| 20260507033551 | 49 | 150 | 0.0 | 0.9 | 0.00 | 0.00 | 0.00 | 93 | 1011.1 |
| 20260507033051 | 49 | 150 | 0.0 | 0.9 | 0.00 | 0.00 | 0.00 | 94 | 1011.2 |
| 20260507032550 | 49 | 148 | 0.0 | 0.9 | 0.00 | 0.00 | 0.00 | 94 | 1011.2 |
| 20260507032311 | 49 | 142 | 0.9 | 1.7 | 0.00 | 0.00 | 0.00 | 94 | 1011.1 |
| 20260507031521 | 49 | 127 | 0.9 | 1.7 | 0.00 | 0.00 | 0.00 | 94 | 1011.2 |
| 20260507030951 | 49 | 100 | 0.0 | 0.0 | 0.00 | 0.00 | 0.00 | 93 | 1011.1 |
| 20260507030421 | 49 | 100 | 0.0 | 0.9 | 0.00 | 0.00 | 0.00 | 94 | 1010.8 |
| 20260507025921 | 49 | 130 | 0.0 | 0.9 | 0.00 | 0.00 | 0.00 | 94 | 1011.1 |
| 20260507025641 | 49 | 135 | 0.9 | 0.9 | 0.00 | 0.00 | 0.00 | 93 | 1011.1 |
| 20260507024851 | 49 | 138 | 0.0 | 0.0 | 0.00 | 0.00 | 0.00 | 92 | 1011.1 |
| 20260507024321 | 49 | 138 | 0.0 | 0.0 | 0.00 | 0.00 | 0.00 | 92 | 1011.1 |
| 20260507023751 | 49 | 154 | 0.9 | 0.9 | 0.00 | 0.00 | 0.00 | 91 | 1011.1 |
| 20260507023251 | 49 | 131 | 1.7 | 1.7 | 0.00 | 0.00 | 0.00 | 90 | 1011.2 |
| 20260507022721 | 49 | 240 | 0.0 | 0.9 | 0.00 | 0.00 | 0.00 | 90 | 1011.0 |
| 20260507022440 | 50 | 242 | 0.0 | 0.9 | 0.00 | 0.00 | 0.00 | 89 | 1011.0 |
| 20260507021651 | 49 | 213 | 0.9 | 1.7 | 0.00 | 0.00 | 0.00 | 90 | 1010.9 |
| 20260507021121 | 49 | 231 | 0.9 | 0.9 | 0.00 | 0.00 | 0.00 | 90 | 1010.5 |
| 20260507020621 | 50 | 214 | 0.9 | 0.9 | 0.00 | 0.00 | 0.00 | 89 | 1010.3 |
| 20260507020121 | 50 | 242 | 0.0 | 0.9 | 0.00 | 0.00 | 0.00 | 89 | 1010.5 |
| 20260507015811 | 50 | 236 | 0.0 | 0.9 | 0.00 | 0.00 | 0.00 | 89 | 1010.3 |
| 20260507015051 | 50 | 231 | 0.0 | 0.9 | 0.00 | 0.00 | 0.00 | 89 | 1010.4 |
| 20260507014521 | 50 | 217 | 1.7 | 2.6 | 0.00 | 0.00 | 0.00 | 89 | 1010.4 |
| 20260507013951 | 50 | 204 | 0.9 | 1.7 | 0.00 | 0.00 | 0.00 | 89 | 1010.2 |
| 20260507013421 | 50 | 205 | 0.0 | 0.9 | 0.00 | 0.00 | 0.00 | 89 | 1010.1 |
| 20260507012851 | 50 | 218 | 0.0 | 0.9 | 0.00 | 0.00 | 0.00 | 89 | 1010.0 |
| 20260507012541 | 50 | 215 | 1.7 | 2.6 | 0.00 | 0.00 | 0.00 | 89 | 1010.2 |
| 20260507011821 | 51 | 217 | 0.0 | 0.9 | 0.00 | 0.00 | 0.00 | 89 | 1010.1 |
| 20260507011251 | 51 | 276 | 0.0 | 0.9 | 0.00 | 0.00 | 0.00 | 88 | 1009.9 |
| 20260507010750 | 51 | 278 | 0.0 | 0.9 | 0.00 | 0.00 | 0.00 | 88 | 1009.8 |
| 20260507010221 | 51 | 283 | 0.0 | 0.0 | 0.00 | 0.00 | 0.00 | 87 | 1009.9 |
| 20260507005912 | 51 | 284 | 0.0 | 0.9 | 0.00 | 0.00 | 0.00 | 87 | 1009.9 |
| 20260507005121 | 51 | 302 | 0.0 | 0.9 | 0.00 | 0.00 | 0.00 | 86 | 1009.9 |
| 20260507004621 | 51 | 295 | 0.0 | 0.9 | 0.00 | 0.00 | 0.00 | 86 | 1010.0 |
| 20260507004051 | 51 | 254 | 1.7 | 5.2 | 0.00 | 0.00 | 0.00 | 86 | 1010.0 |
| 20260507003522 | 52 | 257 | 3.5 | 5.2 | 0.00 | 0.00 | 0.00 | 86 | 1009.8 |
| 20260507002951 | 52 | 277 | 2.6 | 5.2 | 0.00 | 0.00 | 0.00 | 87 | 1009.8 |
| 20260507001921 | 52 | 247 | 2.6 | 3.5 | 0.00 | 0.00 | 0.00 | 86 | 1009.5 |
| 20260507001421 | 52 | 264 | 1.7 | 5.2 | 0.00 | 0.00 | 0.00 | 86 | 1009.8 |
| 20260507000921 | 53 | 226 | 0.9 | 3.5 | 0.00 | 0.00 | 0.00 | 86 | 1009.4 |
| 20260507000421 | 53 | 263 | 0.9 | 2.6 | 0.00 | 0.00 | 0.00 | 86 | 1009.5 |
| 20260507000141 | 53 | 242 | 0.0 | 2.6 | 0.00 | 0.00 | 0.00 | 86 | 1009.6 |
| 20260506235421 | 53 | 249 | 1.7 | 3.5 | 0.00 | 0.00 | 0.00 | 85 | 1009.6 |
| 20260506234850 | 54 | 265 | 1.7 | 2.6 | 0.00 | 0.00 | 0.00 | 85 | 1009.5 |
| 20260506234321 | 54 | 254 | 3.5 | 7.8 | 0.00 | 0.00 | 0.00 | 85 | 1009.4 |
| 20260506233750 | 54 | 239 | 1.7 | 7.0 | 0.00 | 0.00 | 0.00 | 84 | 1009.6 |
| 20260506233221 | 54 | 269 | 4.3 | 8.7 | 0.00 | 0.00 | 0.00 | 85 | 1009.2 |
| 20260506232650 | 54 | 290 | 3.5 | 5.2 | 0.00 | 0.00 | 0.00 | 86 | 1009.2 |
| 20260506232150 | 54 | 285 | 3.5 | 7.0 | 0.00 | 0.00 | 0.00 | 86 | 1009.1 |
| 20260506231621 | 54 | 222 | 4.3 | 7.0 | 0.00 | 0.00 | 0.00 | 87 | 1009.2 |
| 20260506231311 | 54 | 259 | 5.2 | 7.8 | 0.00 | 0.00 | 0.00 | 87 | 1009.3 |
| 20260506230551 | 54 | 242 | 4.3 | 7.0 | 0.00 | 0.00 | 0.00 | 87 | 1009.4 |
| 20260506230051 | 54 | 263 | 4.3 | 9.6 | 0.00 | 0.00 | 0.00 | 87 | 1009.4 |
| 20260506225521 | 54 | 282 | 4.3 | 7.8 | 0.00 | 0.00 | 0.00 | 87 | 1009.2 |
| 20260506225021 | 55 | 229 | 3.5 | 5.2 | 0.00 | 0.00 | 0.00 | 87 | 1009.4 |
| 20260506224710 | 55 | 241 | 3.5 | 7.0 | 0.00 | 0.00 | 0.00 | 86 | 1009.2 |
| 20260506223921 | 55 | 263 | 4.3 | 7.8 | 0.00 | 0.00 | 0.00 | 86 | 1009.0 |
| 20260506223421 | 55 | 253 | 4.3 | 7.0 | 0.00 | 0.00 | 0.00 | 86 | 1008.9 |
| 20260506222850 | 55 | 266 | 6.1 | 11.3 | 0.00 | 0.00 | 0.00 | 87 | 1008.9 |
| 20260506222321 | 55 | 246 | 4.3 | 7.0 | 0.00 | 0.00 | 0.00 | 87 | 1008.9 |
| 20260506222010 | 55 | 241 | 7.0 | 9.6 | 0.00 | 0.00 | 0.00 | 87 | 1009.0 |
| 20260506221221 | 55 | 278 | 7.0 | 9.6 | 0.00 | 0.00 | 0.00 | 88 | 1008.8 |
| 20260506220651 | 55 | 259 | 6.1 | 8.7 | 0.00 | 0.00 | 0.00 | 89 | 1008.6 |
| 20260506220150 | 55 | 245 | 5.2 | 7.0 | 0.00 | 0.00 | 0.00 | 88 | 1008.7 |
| 20260506215620 | 55 | 261 | 4.3 | 8.7 | 0.00 | 0.00 | 0.18 | 88 | 1008.5 |
| 20260506215311 | 55 | 263 | 2.6 | 3.5 | 0.00 | 0.00 | 0.18 | 89 | 1008.5 |
| 20260506214550 | 55 | 263 | 2.6 | 6.1 | 0.00 | 0.00 | 0.18 | 89 | 1008.5 |
| 20260506214050 | 55 | 224 | 1.7 | 5.2 | 0.00 | 0.00 | 0.18 | 88 | 1008.3 |
| 20260506213521 | 55 | 264 | 3.5 | 3.5 | 0.00 | 0.00 | 0.18 | 88 | 1008.3 |
| 20260506212950 | 55 | 242 | 2.6 | 6.1 | 0.00 | 0.00 | 0.18 | 88 | 1008.0 |
| 20260506212710 | 55 | 276 | 1.7 | 9.6 | 0.00 | 0.00 | 0.18 | 88 | 1008.1 |
| 20260506211920 | 55 | 245 | 5.2 | 7.8 | 0.00 | 0.00 | 0.18 | 87 | 1008.3 |
| 20260506211420 | 55 | 267 | 2.6 | 5.2 | 0.00 | 0.00 | 0.18 | 86 | 1008.3 |
| 20260506210850 | 55 | 274 | 3.5 | 6.1 | 0.00 | 0.00 | 0.18 | 86 | 1008.1 |
| 20260506210350 | 55 | 271 | 3.5 | 7.8 | 0.00 | 0.00 | 0.18 | 86 | 1008.0 |
| 20260506210112 | 55 | 277 | 2.6 | 7.8 | 0.00 | 0.00 | 0.18 | 86 | 1008.0 |
| 20260506205320 | 55 | 259 | 4.3 | 11.3 | 0.00 | 0.00 | 0.18 | 86 | 1007.9 |
| 20260506204820 | 56 | 292 | 5.2 | 7.0 | 0.00 | 0.00 | 0.18 | 86 | 1007.9 |
| 20260506204250 | 56 | 290 | 4.3 | 7.8 | 0.00 | 0.00 | 0.18 | 86 | 1007.7 |
| 20260506203750 | 56 | 296 | 1.7 | 11.3 | 0.00 | 0.00 | 0.18 | 85 | 1007.8 |
| 20260506203511 | 56 | 252 | 7.8 | 12.2 | 0.00 | 0.00 | 0.18 | 85 | 1007.9 |
| 20260506202721 | 56 | 243 | 6.1 | 8.7 | 0.00 | 0.00 | 0.18 | 85 | 1007.7 |
| 20260506202220 | 56 | 202 | 5.2 | 9.6 | 0.00 | 0.00 | 0.18 | 85 | 1007.8 |
| 20260506201650 | 56 | 240 | 11.3 | 13.9 | 0.00 | 0.00 | 0.18 | 85 | 1007.6 |
| 20260506201121 | 56 | 266 | 10.4 | 13.0 | 0.00 | 0.00 | 0.18 | 85 | 1007.3 |
| 20260506200550 | 57 | 313 | 7.0 | 11.3 | 0.00 | 0.00 | 0.18 | 85 | 1007.5 |
| 20260506200050 | 57 | 310 | 7.8 | 15.6 | 0.00 | 0.00 | 0.18 | 85 | 1007.3 |
| 20260506195740 | 57 | 253 | 5.2 | 12.2 | 0.00 | 0.00 | 0.18 | 86 | 1007.1 |
| 20260506194950 | 57 | 249 | 7.0 | 12.2 | 0.00 | 0.00 | 0.18 | 86 | 1007.2 |
| 20260506194450 | 57 | 288 | 7.0 | 14.8 | 0.00 | 0.00 | 0.18 | 86 | 1007.0 |
| 20260506193920 | 57 | 243 | 8.7 | 11.3 | 0.00 | 0.00 | 0.18 | 85 | 1006.8 |
| 20260506193420 | 57 | 257 | 4.3 | 13.0 | 0.00 | 0.00 | 0.18 | 84 | 1006.8 |
| 20260506193111 | 57 | 271 | 5.2 | 8.7 | 0.00 | 0.00 | 0.18 | 84 | 1006.4 |
| 20260506192321 | 57 | 204 | 6.1 | 7.8 | 0.00 | 0.00 | 0.18 | 87 | 1006.4 |
| 20260506191750 | 57 | 256 | 4.3 | 7.8 | 0.00 | 0.00 | 0.18 | 88 | 1006.1 |
| 20260506191510 | 57 | 247 | 4.3 | 11.3 | 0.00 | 0.00 | 0.18 | 89 | 1006.0 |
| 20260506190721 | 57 | 277 | 6.1 | 7.0 | 0.00 | 0.00 | 0.18 | 89 | 1005.8 |
| 20260506190220 | 57 | 279 | 6.1 | 14.8 | 0.00 | 0.00 | 0.18 | 89 | 1005.8 |
| 20260506185650 | 57 | 251 | 6.1 | 7.8 | 0.00 | 0.00 | 0.18 | 91 | 1005.3 |
| 20260506185340 | 56 | 272 | 0.9 | 1.7 | 0.00 | 0.00 | 0.18 | 90 | 1005.1 |
| 20260506184550 | 56 | 261 | 2.6 | 3.5 | 0.00 | 0.00 | 0.18 | 91 | 1004.7 |
| 20260506184050 | 56 | 299 | 0.9 | 1.7 | 0.00 | 0.00 | 0.18 | 91 | 1004.7 |
| 20260506183520 | 56 | 4 | 1.7 | 2.6 | 0.00 | 0.00 | 0.18 | 90 | 1004.7 |
| 20260506183020 | 56 | 6 | 0.9 | 1.7 | 0.00 | 0.00 | 0.18 | 91 | 1004.7 |
| 20260506182711 | 56 | 48 | 1.7 | 6.1 | 0.00 | 0.00 | 0.18 | 90 | 1004.6 |
| 20260506181920 | 56 | 66 | 3.5 | 7.0 | 0.01 | 0.00 | 0.18 | 91 | 1004.4 |
| 20260506181420 | 56 | 38 | 6.1 | 7.8 | 0.02 | 0.00 | 0.18 | 90 | 1003.9 |
| 20260506180851 | 56 | 40 | 4.3 | 6.1 | 0.03 | 0.00 | 0.18 | 91 | 1004.2 |
| 20260506180321 | 56 | 334 | 2.6 | 3.5 | 0.05 | 0.00 | 0.18 | 90 | 1004.5 |
| 20260506180011 | 56 | 318 | 1.7 | 3.5 | 0.08 | 0.00 | 0.18 | 89 | 1004.9 |
| 20260506175251 | 57 | 340 | 1.7 | 5.2 | 0.12 | 0.00 | 0.18 | 90 | 1004.9 |
| 20260506174721 | 57 | 339 | 0.9 | 2.6 | 0.14 | 0.00 | 0.18 | 89 | 1004.8 |
| 20260506174221 | 57 | 11 | 3.5 | 3.5 | 0.15 | 0.00 | 0.18 | 89 | 1005.1 |
| 20260506173650 | 57 | 16 | 1.7 | 2.6 | 0.16 | 0.00 | 0.18 | 88 | 1004.7 |
| 20260506173342 | 56 | 337 | 0.9 | 6.1 | 0.17 | 0.00 | 0.18 | 88 | 1004.8 |
| 20260506172551 | 57 | 332 | 4.3 | 6.1 | 0.17 | 0.00 | 0.18 | 87 | 1004.2 |
| 20260506172051 | 57 | 332 | 2.6 | 8.7 | 0.17 | 0.00 | 0.17 | 88 | 1004.4 |
| 20260506171521 | 57 | 316 | 3.5 | 14.8 | 0.16 | 0.00 | 0.17 | 86 | 1004.5 |
| 20260506170951 | 58 | 306 | 11.3 | 20.0 | 0.15 | 0.00 | 0.15 | 86 | 1004.9 |
| 20260506170909 | 58 | 274 | 14.8 | 19.1 | 0.13 | 0.00 | 0.14 | 86 | 1005.0 |
| 20260506170141 | 59 | 240 | 12.2 | 19.1 | 0.10 | 0.00 | 0.11 | 85 | 1005.1 |
| 20260506165420 | 62 | 266 | 17.4 | 27.8 | 0.06 | 0.00 | 0.06 | 81 | 1004.9 |
| 20260506164851 | 63 | 239 | 7.8 | 13.9 | 0.04 | 0.00 | 0.04 | 71 | 1004.3 |
| 20260506164321 | 64 | 285 | 5.2 | 13.9 | 0.03 | 0.00 | 0.03 | 68 | 1003.9 |
| 20260506163751 | 65 | 243 | 3.5 | 9.6 | 0.02 | 0.00 | 0.02 | 66 | 1003.3 |
| 20260506163511 | 67 | 320 | 3.5 | 8.7 | 0.01 | 0.00 | 0.02 | 64 | 1003.0 |
| 20260506162721 | 68 | 340 | 7.0 | 7.8 | 0.00 | 0.00 | 0.01 | 60 | 1003.0 |
| 20260506162221 | 68 | 270 | 6.1 | 12.2 | 0.00 | 0.00 | 0.00 | 54 | 1003.0 |
| 20260506161651 | 69 | 297 | 4.3 | 9.6 | 0.00 | 0.00 | 0.00 | 52 | 1002.7 |
| 20260506161122 | 69 | 297 | 7.0 | 11.3 | 0.00 | 0.00 | 0.00 | 52 | 1002.2 |
| 20260506160551 | 69 | 314 | 6.1 | 11.3 | 0.00 | 0.00 | 0.00 | 51 | 1002.1 |
| 20260506160310 | 70 | 345 | 5.2 | 7.8 | 0.00 | 0.00 | 0.00 | 52 | 1002.1 |
| 20260506155521 | 70 | 301 | 5.2 | 7.0 | 0.00 | 0.00 | 0.00 | 51 | 1001.9 |
| 20260506155021 | 70 | 329 | 6.1 | 7.8 | 0.00 | 0.00 | 0.00 | 51 | 1001.9 |
| 20260506154451 | 71 | 334 | 4.3 | 8.7 | 0.00 | 0.00 | 0.00 | 50 | 1001.6 |
| 20260506153921 | 71 | 344 | 4.3 | 6.1 | 0.00 | 0.00 | 0.00 | 51 | 1002.1 |
| 20260506153610 | 71 | 3 | 5.2 | 7.8 | 0.00 | 0.00 | 0.00 | 49 | 1002.1 |
| 20260506152851 | 72 | 318 | 3.5 | 7.8 | 0.00 | 0.00 | 0.00 | 49 | 1002.2 |
| 20260506152321 | 72 | 7 | 1.7 | 6.1 | 0.00 | 0.00 | 0.00 | 49 | 1002.4 |
| 20260506151821 | 72 | 317 | 2.6 | 8.7 | 0.00 | 0.00 | 0.00 | 47 | 1002.5 |
| 20260506151251 | 72 | 357 | 5.2 | 7.8 | 0.00 | 0.00 | 0.00 | 47 | 1002.4 |
| 20260506151010 | 73 | 335 | 1.7 | 7.0 | 0.00 | 0.00 | 0.00 | 47 | 1002.6 |
| 20260506150442 | 74 | 34 | 3.5 | 5.2 | 0.00 | 0.00 | 0.00 | 44 | 1002.6 |
| 20260506145651 | 75 | 37 | 6.1 | 7.0 | 0.00 | 0.00 | 0.00 | 41 | 1002.7 |
| 20260506145121 | 74 | 3 | 1.7 | 3.5 | 0.00 | 0.00 | 0.00 | 42 | 1002.8 |
| 20260506144621 | 75 | 1 | 1.7 | 3.5 | 0.00 | 0.00 | 0.00 | 42 | 1002.7 |
| 20260506144312 | 75 | 32 | 2.6 | 6.1 | 0.00 | 0.00 | 0.00 | 43 | 1003.0 |
| 20260506143551 | 76 | 223 | 0.0 | 2.6 | 0.00 | 0.00 | 0.00 | 41 | 1002.9 |
| 20260506143051 | 76 | 313 | 2.6 | 2.6 | 0.00 | 0.00 | 0.00 | 42 | 1002.8 |
| 20260506142521 | 74 | 312 | 2.6 | 5.2 | 0.00 | 0.00 | 0.00 | 42 | 1003.2 |
| 20260506142021 | 74 | 277 | 2.6 | 5.2 | 0.00 | 0.00 | 0.00 | 42 | 1003.1 |
| 20260506141711 | 74 | 216 | 0.0 | 0.9 | 0.00 | 0.00 | 0.00 | 43 | 1003.3 |
| 20260506140950 | 73 | 123 | 0.0 | 1.7 | 0.00 | 0.00 | 0.00 | 44 | 1003.4 |
| 20260506140450 | 72 | 133 | 1.7 | 5.2 | 0.00 | 0.00 | 0.00 | 46 | 1003.4 |
| 20260506135921 | 72 | 92 | 4.3 | 6.1 | 0.00 | 0.00 | 0.00 | 45 | 1003.5 |
| 20260506135421 | 73 | 46 | 2.6 | 3.5 | 0.00 | 0.00 | 0.00 | 43 | 1003.2 |
| 20260506135111 | 73 | 41 | 3.5 | 7.0 | 0.00 | 0.00 | 0.00 | 46 | 1003.5 |
| 20260506134321 | 73 | 324 | 0.9 | 1.7 | 0.00 | 0.00 | 0.00 | 45 | 1003.7 |
| 20260506133751 | 73 | 180 | 1.7 | 2.6 | 0.00 | 0.00 | 0.00 | 44 | 1003.6 |
| 20260506133251 | 74 | 79 | 4.3 | 6.1 | 0.00 | 0.00 | 0.00 | 44 | 1003.6 |
| 20260506132751 | 74 | 92 | 0.0 | 2.6 | 0.00 | 0.00 | 0.00 | 43 | 1003.7 |
| 20260506132512 | 74 | 114 | 3.5 | 6.1 | 0.00 | 0.00 | 0.00 | 45 | 1003.6 |
| 20260506131721 | 73 | 121 | 2.6 | 5.2 | 0.00 | 0.00 | 0.00 | 44 | 1003.6 |
| 20260506131221 | 73 | 172 | 3.5 | 6.1 | 0.00 | 0.00 | 0.00 | 45 | 1003.9 |
| 20260506130720 | 72 | 129 | 3.5 | 5.2 | 0.00 | 0.00 | 0.00 | 47 | 1004.0 |
| 20260506130151 | 72 | 142 | 7.0 | 8.7 | 0.00 | 0.00 | 0.00 | 45 | 1004.2 |
| 20260506125651 | 72 | 133 | 5.2 | 7.8 | 0.00 | 0.00 | 0.00 | 44 | 1004.0 |
| 20260506125342 | 73 | 121 | 3.5 | 11.3 | 0.00 | 0.00 | 0.00 | 45 | 1004.0 |
| 20260506124621 | 72 | 134 | 4.3 | 7.8 | 0.00 | 0.00 | 0.00 | 45 | 1004.0 |
| 20260506124051 | 72 | 138 | 5.2 | 8.7 | 0.00 | 0.00 | 0.00 | 47 | 1004.0 |
| 20260506123521 | 71 | 36 | 0.9 | 3.5 | 0.00 | 0.00 | 0.00 | 44 | 1004.2 |
| 20260506122951 | 72 | 121 | 0.0 | 1.7 | 0.00 | 0.00 | 0.00 | 45 | 1004.5 |
| 20260506122710 | 72 | 129 | 1.7 | 2.6 | 0.00 | 0.00 | 0.00 | 47 | 1004.2 |
| 20260506121921 | 71 | 132 | 0.0 | 3.5 | 0.00 | 0.00 | 0.00 | 48 | 1004.5 |
| 20260506121351 | 71 | 86 | 5.2 | 7.8 | 0.00 | 0.00 | 0.00 | 46 | 1005.0 |
| 20260506120851 | 72 | 109 | 5.2 | 8.7 | 0.00 | 0.00 | 0.00 | 45 | 1005.1 |
| 20260506120321 | 71 | 145 | 4.3 | 6.1 | 0.00 | 0.00 | 0.00 | 46 | 1005.2 |
| 20260506115820 | 71 | 86 | 0.9 | 6.1 | 0.00 | 0.00 | 0.00 | 46 | 1005.0 |
| 20260506115250 | 72 | 132 | 2.6 | 3.5 | 0.00 | 0.00 | 0.00 | 44 | 1005.2 |
| 20260506114721 | 72 | 49 | 1.7 | 3.5 | 0.00 | 0.00 | 0.00 | 46 | 1005.3 |
| 20260506114220 | 72 | 39 | 7.8 | 11.3 | 0.00 | 0.00 | 0.00 | 44 | 1005.3 |
| 20260506113911 | 73 | 91 | 7.0 | 8.7 | 0.00 | 0.00 | 0.00 | 44 | 1005.4 |
| 20260506113121 | 73 | 133 | 1.7 | 9.6 | 0.00 | 0.00 | 0.00 | 43 | 1005.6 |
| 20260506112550 | 73 | 144 | 7.0 | 9.6 | 0.00 | 0.00 | 0.00 | 47 | 1005.6 |
| 20260506112051 | 72 | 33 | 2.6 | 3.5 | 0.00 | 0.00 | 0.00 | 49 | 1005.7 |
| 20260506111521 | 72 | 154 | 0.0 | 1.7 | 0.00 | 0.00 | 0.00 | 47 | 1005.9 |
| 20260506111211 | 71 | 123 | 3.5 | 6.1 | 0.00 | 0.00 | 0.00 | 48 | 1005.9 |
| 20260506110421 | 71 | 141 | 2.6 | 3.5 | 0.00 | 0.00 | 0.00 | 47 | 1006.0 |
| 20260506105921 | 71 | 139 | 3.5 | 5.2 | 0.00 | 0.00 | 0.00 | 47 | 1006.2 |
| 20260506105421 | 70 | 129 | 3.5 | 7.8 | 0.00 | 0.00 | 0.00 | 51 | 1006.1 |
| 20260506104851 | 71 | 113 | 1.7 | 6.1 | 0.00 | 0.00 | 0.00 | 50 | 1006.1 |
| 20260506104321 | 71 | 294 | 0.9 | 1.7 | 0.00 | 0.00 | 0.00 | 49 | 1006.2 |
| 20260506103821 | 71 | 147 | 3.5 | 5.2 | 0.00 | 0.00 | 0.00 | 47 | 1006.3 |
| 20260506103321 | 70 | 140 | 2.6 | 7.0 | 0.00 | 0.00 | 0.00 | 49 | 1006.4 |
| 20260506103041 | 69 | 263 | 0.0 | 1.7 | 0.00 | 0.00 | 0.00 | 50 | 1006.6 |
| 20260506102251 | 69 | 221 | 0.0 | 2.6 | 0.00 | 0.00 | 0.00 | 50 | 1006.4 |
| 20260506101751 | 69 | 179 | 1.7 | 2.6 | 0.00 | 0.00 | 0.00 | 48 | 1006.5 |